This demonstration page uses our WeatherBlox Daily Observations layout. Learn more.

Left ArrowRight Arrow

39.08367, -84.50855

Hourly Observations for December 25, 2017

Temp ( °F °C ) Dew Point ( °F °C ) Humidity (%) Winds ( mph kmh ) Pressure ( in mb ) Visibility ( mi km ) Precip ( " mm )
12:53 am 00:53 Clear 23 -5 13 -10.6 65 65 W 18 30 30.21 1023 10 16 N/A
1:53 am 01:53 Cloudy with Light Snow 22 -5.6 15 -9.4 75 75 WSW 13 20 30.23 1024 8 13 N/A
2:53 am 02:53 Cloudy with Light Snow 23 -5 14 -10 68 68 W 16 26 30.27 1025 9 14 N/A
3:53 am 03:53 Cloudy 23 -5 14 -10 68 68 W 14 22 30.29 1026 10 16 N/A
4:53 am 04:53 Cloudy 23 -5 13 -10.6 65 65 WSW 13 20 30.31 1026 10 16 N/A
5:53 am 05:53 Cloudy 23 -5 15 -9.4 72 72 WSW 8 13 30.32 1027 9 14 N/A
6:46 am 06:46 Cloudy 23 -5 16 -8.9 74 74 SW 13 20 30.36 1028 10 16 N/A
6:53 am 06:53 Cloudy 23 -5 16 -8.9 74 74 WSW 12 19 30.34 1028 10 16 N/A
7:53 am 07:53 Cloudy 23 -5 15 -9.4 72 72 SW 12 19 30.35 1028 10 16 N/A
8:53 am 08:53 Mostly Cloudy 23 -5 13 -10.6 65 65 WSW 17 28 30.35 1028 10 16 N/A
9:53 am 09:53 Mostly Sunny 24 -4.4 14 -10 65 65 SW 13 20 30.35 1028 10 16 N/A
10:53 am 10:53 Sunny 26 -3.3 14 -10 60 60 WSW 14 22 30.37 1028 10 16 N/A
11:53 am 11:53 Partly Cloudy 26 -3.3 14 -10 60 60 WSW 17 28 30.36 1028 10 16 N/A
12:53 pm 12:53 Mostly Cloudy 29 -1.7 14 -10 54 54 WSW 17 28 30.35 1028 10 16 N/A
1:53 pm 13:53 Partly Cloudy 29 -1.7 11 -11.7 47 47 W 16 26 30.35 1028 10 16 N/A
2:53 pm 14:53 Sunny 29 -1.7 7 -13.9 39 39 W 16 26 30.36 1028 10 16 N/A
3:53 pm 15:53 Mostly Sunny 28 -2.2 7 -13.9 41 41 W 14 22 30.39 1029 10 16 N/A
4:53 pm 16:53 Mostly Sunny 27 -2.8 5 -15 39 39 W 9 15 30.40 1030 10 16 N/A
5:53 pm 17:53 Clear 26 -3.3 5 -15 40 40 WSW 14 22 30.43 1030 10 16 N/A
6:53 pm 18:53 Clear 25 -3.9 7 -13.9 46 46 W 13 20 30.45 1031 10 16 N/A
7:53 pm 19:53 Clear 25 -3.9 8 -13.3 48 48 WSW 9 15 30.45 1031 10 16 N/A
8:53 pm 20:53 Clear 25 -3.9 8 -13.3 48 48 WSW 8 13 30.46 1032 10 16 N/A
9:53 pm 21:53 Clear 24 -4.4 9 -12.8 52 52 WSW 9 15 30.47 1032 10 16 N/A
10:53 pm 22:53 Clear 24 -4.4 9 -12.8 52 52 WSW 9 15 30.49 1032 10 16 N/A
11:53 pm 23:53 Clear 24 -4.4 10 -12.2 55 55 WSW 6 9 30.48 1032 10 16 N/A

Powered by AerisWeather